Regional Weather Roundup
Issued by NWS

Home | Current Version | Previous Version | Graphics & Text | Print | Product List | Glossary On
Versions: 1 2 3 4 5 6 7 8 9 10 11 12 13 14 15 16 17 18 19 20 21 22 23 24 25 26 27 28 29 30 31 32 33 34 35 36 37 38 39 40 41 42 43 44 45 46 47 48 49 50
000
ASUS44 KMEG 280500
RWRTN
TENNESSEE HOURLY STATE WEATHER ROUNDUP
NATIONAL WEATHER SERVICE MEMPHIS TN
1200 AM CDT THU APR 28 2016

TNZ002-004-019-021-049-052-054-088>092-280600-
WEST TENNESSEE

CITY           SKY/WX    TMP DP  RH WIND       PRES   REMARKS
MEMPHIS INTL   PTCLDY    70  66  87 S7        29.75S
NWS MEMPHIS      N/A     68 N/A N/A MISG        N/A
JACKSON        CLEAR     64  63  96 S5        29.75S FOG
DYERSBURG      CLEAR     66  63  88 CALM      29.75S
UNION CITY     CLEAR     64  64 100 S3        29.73S
LEXINGTON      PTCLDY    66  66 100 CALM      29.76R
$$

TNZ008-025-027-028-033-062-065-066-280600-
NORTH MIDDLE TENNESSEE

CITY           SKY/WX    TMP DP  RH WIND       PRES   REMARKS
NASHVILLE      PTCLDY    66  63  90 SE5       29.78S
CLARKSVILLE    RAIN      63  61  93 W7        29.77R FOG
COOKEVILLE     PTCLDY    63  63 100 CALM      29.81F
CROSSVILLE     CLOUDY    61  59  93 CALM      29.87S FOG
$$

TNZ061-075-076-078-094-096-097-280600-
SOUTH MIDDLE TENNESSEE

CITY           SKY/WX    TMP DP  RH WIND       PRES   REMARKS
TULLAHOMA      CLEAR     63  63 100 CALM      29.83S
WINCHESTER     CLEAR     66  63  88 S5        29.83R
MCMINNVILLE    MOCLDY    63  63 100 CALM      29.82S VSB 1/2
COLUMBIA       CLEAR    N/A N/A N/A S8        29.77S
SHELBYVILLE    CLEAR     66  64  94 SE3       29.81S
$$

TNZ017-018-042-046-047-280600-
NORTHEAST TENNESSEE

CITY           SKY/WX    TMP DP  RH WIND       PRES   REMARKS
TRI CITIES     CLOUDY    62  61  96 NE3       29.87S THUNDER
$$

TNZ012-013-036-069-073-074-280600-
CENTRAL EAST TENNESSEE

CITY           SKY/WX    TMP DP  RH WIND       PRES   REMARKS
KNOXVILLE      LGT RAIN  66  63  90 SW7       29.85R
OAK RIDGE      CLOUDY    65  62  90 CALM      29.86F
GATLINBURG     CLOUDY    66  59  77 VRB5      29.85R
$$

TNZ083-085-099-280600-
SOUTHEAST TENNESSEE

CITY           SKY/WX    TMP DP  RH WIND       PRES   REMARKS
CHATTANOOGA    CLOUDY    68  65  90 CALM      29.84R
$$

SKY/WX REPORTED AS FAIR MEANS FEW OR NO CLOUDS BELOW
12 THOUSAND FEET.





USA.gov is the U.S. government's official web portal to all federal, state and local government web resources and services.